Cloud_Cover
4 0 37 82 5 5 0 0 0 0 0 0 0 0 0 0 0 0 0 0 0 5 39 1 0 0 0 0 0 7 30 54 33 6 8 14 73 100 69 73 87 86 5 21
0 0 46 5 5 5 5 1 0 0 0 0 0 0 0 0 0 0 0 0 0 0 58 36 0 0 0 0 0 0 1 30 12 61 30 41 97 36 77 66 95 99 79 7
0 2 5 3 5 4 0 1 5 0 0 0 0 0 0 0 0 0 0 0 0 0 0 0 0 0 0 0 0 0 61 94 89 16 0 5 5 5 5 20 24 89 67 63
0 4 3 0 0 0 0 3 1 0 0 0 0 0 0 0 0 0 0 2 5 4 0 0 0 0 0 0 4 5 3 0 51 51 4 4 0 2 14 90 90 47 50 33
0 0 0 0 0 0 0 0 0 0 0 0 0 0 0 0 0 4 0 5 5 4 0 0 0 0 0 0 5 1 0 0 0 0 0 0 0 0 2 5 32 15 78 40
0 0 0 0 5 0 0 0 0 0 0 0 3 0 0 0 0 5 2 5 5 2 5 4 4 4 0 8 11 10 5 33 2 1 0 0 0 0 0 0 0 0 5 5
0 0 0 0 0 2 0 0 0 0 0 0 0 0 0 4 0 0 0 0 5 5 5 2 5 7 44 12 4 5 96 99 100 79 71 20 36 23 3 1 0 0 5 5
0 0 0 0 0 0 0 0 0 2 3 0 0 0 2 0 0 0 0 3 4 5 1 0 3 90 32 38 29 5 100 100 95 100 100 100 100 100 100 100 93 3 3 5
0 1 0 0 0 0 0 0 0 5 10 5 3 5 67 0 0 0 0 3 0 0 0 5 5 62 5 46 14 88 100 100 100 83 100 100 100 100 100 100 100 100 86 5
5 74 3 0 0 0 0 0 0 0 26 5 5 5 5 8 5 3 4 1 2 0 0 1 4 5 4 45 96 96 97 100 100 82 96 6 100 100 100 100 92 100 100 100
9 37 56 12 8 1 0 0 0 0 0 0 34 100 90 27 81 97 100 100 28 6 4 0 0 3 0 0 0 1 7 72 72 100 75 15 20 46 100 100 99 97 89 100
4 4 5 90 5 5 5 0 0 0 0 0 0 28 100 100 100 100 100 85 100 89 27 5 4 0 0 0 5 0 1 9 68 48 100 77 5 95 3 99 94 100 57 100
2 12 39 6 5 5 19 42 5 0 0 0 0 8 56 72 65 82 97 90 52 49 77 46 6 5 5 1 5 4 0 0 0 5 66 79 5 43 97 4 29 100 100 100
45 90 92 5 5 1 0 5 5 3 0 0 0 12 71 46 14 18 33 65 68 66 46 28 8 5 5 1 0 0 0 0 0 0 10 92 20 19 8 100 26 66 100 100
30 37 30 5 5 5 4 3 2 0 0 0 0 0 2 48 34 5 9 9 7 5 5 5 5 5 2 0 0 0 0 0 0 0 0 14 98 5 23 11 85 10 97 100
7 32 100 90 5 70 70 76 7 5 5 5 3 0 0 5 5 5 5 5 5 6 5 5 5 5 5 5 5 5 4 0 0 0 0 0 4 2 0 0 0 5 42 86
5 5 5 100 12 60 100 20 5 5 5 5 5 5 5 1 5 5 5 10 5 5 5 5 5 4 5 5 5 1 0 0 0 0 0 0 0 0 0 0 0 5 1 5
95 12 6 100 54 62 70 5 29 76 32 23 8 5 5 5 5 5 5 5 5 5 5 4 2 4 5 1 0 0 0 0 0 0 0 0 0 0 0 0 0 3 0 3
88 7 0 16 100 100 90 42 24 6 24 6 5 5 5 5 5 5 5 5 5 5 5 5 5 1 0 0 0 0 0 0 0 0 0 0 0 0 0 0 0 0 0 0
0 0 0 0 0 20 94 95 98 91 87 80 96 86 89 52 10 5 5 5 5 5 1 0 0 0 0 0 0 0 0 0 0 0 0 0 0 0 0 0 0 0 0 0
0 0 0 0 0 0 1 0 1 5 5 64 63 47 53 46 11 5 5 5 1 0 4 1 5 5 5 4 0 0 0 0 0 0 0 0 0 0 0 0 0 0 0 0
0 0 0 0 0 1 5 9 5 5 5 5 5 5 14 20 18 5 3 5 3 5 5 5 5 5 5 0 0 0 0 0 0 0 0 0 0 0 0 0 0 0 0 0
0 0 0 0 0 2 6 53 42 25 46 24 5 1 0 0 0 1 4 4 5 5 5 5 5 4 4 0 0 0 0 0 0 0 0 0 0 0 0 0 0 0 0 3
0 0 0 0 4 30 75 63 57 11 4 0 0 1 0 2 5 5 5 5 5 40 55 5 5 2 0 0 0 0 12 18 41 56 45 19 0 58 99 0 0 2 5 3
13 5 5 5 6 5 3 0 0 2 4 5 5 5 5 5 26 56 42 55 42 4 7 3 0 0 4 4 3 6 28 56 72 66 72 68 61 56 39 19 31 50 44 24
1 0 0 0 2 4 5 5 5 5 5 5 5 5 5 5 5 14 25 80 99 98 72 35 27 44 37 19 76 100 100 100 100 100 95 99 82 89 34 57 53 65 68 16